308  
ASUS44 KLCH 171911  
RWRLCH  
REGIONAL WEATHER ROUNDUP  
NATIONAL WEATHER SERVICE LAKE CHARLES LA  
200 PM CDT TUE SEP 17 2019  
 
NOTE: "FAIR" INDICATES FEW OR NO CLOUDS BELOW 12,000 FEET WITH NO  
SIGNIFICANT WEATHER AND/OR S TO VISIBILITY
.  
 
ACROSS SOUTHEAST TEXAS  
 
CITY SKY/WX TMP DP RH WIND PRES REMARKS
 
BEAUMONT LGT RAIN 76 74 93 SE13G22 29.94F FOG  
BEAUMONT CITY NOT AVBL  
ORANGE MOCLDY 84 80 86 SE10 29.97F  
JASPER FAIR 86 74 68 SE7 30.00F  

 
 
ACROSS CENTRAL LOUISIANA  
 
CITY SKY/WX TMP DP RH WIND PRES REMARKS
 
LEESVILLE FAIR 90 70 51 SE12 29.96F  
FULLERTON FAIR 92 71 50 VRB6 29.96F  
ALEXANDRIA INT FAIR 92 72 51 E10 29.96F  
ESLER FIELD FAIR 94 72 48 SE8G18 29.98F HX 102  
DERIDDER FAIR 85 73 65 SE5 30.00F  
OAKDALE FAIR 88 73 62 SE3 29.98F  
OPELOUSAS MOCLDY 89 73 60 E8 29.99F  

 
 
ACROSS SOUTHWEST AND SOUTH CENTRAL LOUISIANA  
 
CITY SKY/WX TMP DP RH WIND PRES REMARKS
 
DEQUINCY FAIR 84 74 71 SE8 29.98F  
SULPHUR FAIR 85 74 70 SE10 29.98F  
LAKE CHARLES PTSUNNY 85 75 72 S7 29.96F  
CHENNAULT INT PTSUNNY 82 77 83 S12 29.97F  
CAMERON PHI NOT AVBL  
GRAND CHENIER NOT AVBL  
JENNINGS FAIR 88 73 60 E13 29.97F  
LAFAYETTE PTSUNNY 86 77 74 E3 29.98F  
NEW IBERIA FAIR 91 74 57 S13 29.99F HX 100  
ABBEVILLE FAIR 89 74 63 SE12G17 29.99F  
PATTERSON FAIR 90 76 63 S12 29.99F HX 101  
SALT POINT N/A 87 78 74 MISG 29.98F HX 100  

 
 
SELECTED SITES ACROSS THE REGION  
 
CITY SKY/WX TMP DP RH WIND PRES REMARKS
 
HOUSTON BUSH LGT RAIN 80 75 84 E14G23 29.90F  
HOUSTON HOBBY LGT RAIN 80 75 84 E17G25 29.87F  
GALVESTON LGT RAIN 81 78 91 E23G32 29.86F  
COLLEGE STAT PTSUNNY 87 74 64 E12 29.91F  
CONROE PTSUNNY 82 74 76 E9 29.93F  
HUNTSVILLE PTSUNNY 86 70 58 VRB6 29.94F  
LUFKIN PTSUNNY 85 75 72 SE10 29.97F  
SHREVEPORT PTSUNNY 92 71 50 E14 29.97F  
MONROE FAIR 97 68 38 SE8 29.99F HX 102  
NATCHEZ MS FAIR 94 69 44 SE10 30.01F  
BATON ROUGE FAIR 92 74 55 E8 29.99F HX 101  
N.O. INTL ARPT PTSUNNY 93 72 50 S10 30.00F HX 101  
SLIDELL FAIR 92 71 50 SE7 30.00F  

 
 
MARINE REPORTS  
 
STATION/POSITION TIME SKY/WX TEMP WIND PRES VSBY
 
AIR SEA DIR/SP/G  
(UTC) (F) (DEG/KT/KT) (MB) (MI)  
BUOY 30 S HIGH I 1850 81 130/ 21/ 25 1013.1F  
WVE H/P(F/S)= 5/ 6  
 
SEA RIM ST PARK 1900 78 140/ 14/ 19 1013.9F  
PORT ARTHUR 1830 76 86 130/ 17/ 26 1014.6F  
SABINE PASS N 1830 76 86 140/ 18/ 22 1015.7F  
TEXAS POINT 1830 75 83 130/ 19/ 21 1012.9S  
CALCASIEU PASS 1830 80 84 150/ 12/ 17 1014.1F  
LK CHARLES BEACH 1830 83 87 1015.0F  
MARSH ISLAND 1800 83 N/A  
FRESH WATER LOCK NOT AVBL  
AMERADA PASS 1830 87 86 120/ 5/ 9 1016.0F  

 
 
 
CLICK HERE TO GO TO PREVIOUS BULLETINS.

The Nexlab LA Page
The Nexlab TX Page Main Text Page